Location: �perlecques
(50.8057°N, 2.1521°E)
Time: 17:51:58
(UTC+00:00)

KKS-1 - Pass Details

Date: 08 April 2023
Orbit: 633 x 644 km, 98.2° (Epoch: 03 June)

Event Time Altitude Azimuth Distance (km) Brightness Sun altitude
Rises 21:47:29 0° 22° (NNE) 2,944 ? -25.8°
Reaches altitude 10° 21:49:55 10° 33° (NNE) 2,031 ? -26.0°
Enters shadow 21:51:37 20° 49° (NE) 1,488 ? -26.2°
